This demonstration page uses our WeatherBlox Daily Observations layout. Learn more.

Left ArrowRight Arrow

Hourly Observations for April 25, 2021

Temp ( °F °C ) Dew Point ( °F °C ) Humidity (%) Winds ( mph kmh ) Pressure ( in mb ) Visibility ( mi km ) Precip ( " mm )
12:56 am 00:56 Clear 49 9.4 36 2.2 61 61 ESE 14 22 29.92 1013 10 16 0.00 0.00
1:56 am 01:56 Clear 48 8.9 36 2.2 63 63 SE 15 24 29.90 1013 10 16 0.00 0.00
2:56 am 02:56 Clear 48 8.9 36 2.2 63 63 SE 14 22 29.88 1012 10 16 0.00 0.00
3:56 am 03:56 Mostly Clear 47 8.3 37 2.8 69 69 SE 9 15 29.88 1012 10 16 0.00 0.00
4:56 am 04:56 Clear 45 7.2 37 2.8 74 74 SE 13 20 29.85 1011 10 16 0.00 0.00
5:56 am 05:56 Clear 45 7.2 38 3.3 77 77 SE 14 22 29.83 1010 10 16 0.00 0.00
6:56 am 06:56 Sunny 45 7.2 38 3.3 77 77 SE 13 20 29.83 1010 10 16 0.00 0.00
7:56 am 07:56 Sunny 48 8.9 39 3.9 71 71 SSE 18 30 29.80 1009 10 16 0.00 0.00
8:56 am 08:56 Sunny 54 12.2 42 5.6 64 64 S 24 39 29.79 1009 10 16 0.00 0.00
9:56 am 09:56 Sunny 59 15 44 6.7 58 58 S 29 46 29.75 1008 10 16 0.00 0.00
10:56 am 10:56 Sunny 60 15.6 45 7.2 58 58 S 24 39 29.75 1008 10 16 0.00 0.00
11:56 am 11:56 Sunny 64 17.8 46 7.8 52 52 SSW 21 33 29.73 1007 10 16 0.00 0.00
12:56 pm 12:56 Sunny 66 18.9 47 8.3 50 50 SSW 16 26 29.72 1006 10 16 0.00 0.00
1:56 pm 13:56 Sunny 70 21.1 47 8.3 44 44 S 15 24 29.69 1005 10 16 0.00 0.00
2:56 pm 14:56 Sunny 73 22.8 47 8.3 40 40 SSW 16 26 29.67 1005 10 16 0.00 0.00
3:56 pm 15:56 Sunny 75 23.9 46 7.8 36 36 S 14 22 29.64 1004 10 16 0.00 0.00
4:56 pm 16:56 Sunny 77 25 44 6.7 31 31 SSW 9 15 29.62 1003 10 16 0.00 0.00
5:56 pm 17:56 Sunny 77 25 45 7.2 32 32 S 13 20 29.61 1003 10 16 0.00 0.00
6:56 pm 18:56 Sunny 76 24.4 45 7.2 33 33 SSE 18 30 29.60 1002 10 16 0.00 0.00
7:56 pm 19:56 Sunny 71 21.7 46 7.8 41 41 SSE 9 15 29.60 1002 10 16 0.00 0.00
8:56 pm 20:56 Clear 66 18.9 45 7.2 47 47 SE 10 17 29.59 1002 10 16 0.00 0.00
9:56 pm 21:56 Clear 62 16.7 50 10 65 65 SE 12 19 29.60 1002 10 16 0.00 0.00
10:56 pm 22:56 Clear 64 17.8 52 11.1 65 65 SSE 20 31 29.58 1002 10 16 0.00 0.00
11:56 pm 23:56 Clear 63 17.2 52 11.1 68 68 SSE 20 31 29.55 1001 10 16 0.00 0.00

Powered by AerisWeather